Showing default

COSMOS 2544 (GLONASS), 44850

Orbit data source: Space-Track

COSMOS 2544 (GLONASS), 44850 is a Commonwealth of Independent States-origin payload satellite in MEO that was launched on Wed, 11 Dec 2019 UTC via a SOYUZ-2-1B launch vehicle from the Plesetsk Missile And Space Complex (PKMTR). Payload-class satellites include a variety of spacecraft equipped with specific instruments for various scientific and technological missions. These include communications satellites like Starlink; space stations such as the ISS; scientific satellites like the Hubble; Earth observation satellites from companies like Planet Labs, Umbra, and HawkEye 360; GPS; miniature CubeSats for education and research; and military/defense satellites.

Loading next visibility...
Identifier
44850, 2019-088A
Orbit
MEO
Country
Flag of CISCIS
Related business
Manufacturer
Resehetnev ISS
Mission
Operational Defense Navigation
Bus & Motor
URAGAN, Unknown motor
Mass
1,450 kg wet, ~1,200 kg dry
Launch date (UTC)
2019-12-11 (6 years ago)
Launch vehicle
SOYUZ-2-1B
Launch site
Plesetsk Missile And Space Complex (PKMTR)
Object type
Payload
Rocket body
Debris
Shape & HBR
Cyl + 1 Ant + 2 Pan, Unknown HBR
Radar Cross Section
8.467 m², Large (>1 m²)

Expand to show TLE details & history
Last TLE update: 2 days ago

TLE from 2 days ago
0 COSMOS 2544 (GLONASS)
1 44850U 19088A   25350.01734634 -.00000055  00000-0  00000-0 0  9991
2 44850  65.4622  79.8485 0013832 249.7220 110.1429  2.13101973 46816
Epoch: 2025-12-16T00:24Z
TLE epoch observation values (Epoch: 2025-12-16T00:24:58.723Z)
Latitude
0.00005°
Longitude
-11.29801°
Altitude
19,142.702 km
Speed
3.951 km/s
True Right ascension
05h 19m 25s
True Declination
0° 00' 00"
Sunlit
Object was in daylight at epoch
Visualization orbit readout
Latitude
Unknown
Longitude
Unknown
Altitude
Unknown
Speed
Unknown
Apparent Right ascension
Unknown
Apparent Declination
Unknown
Sunlit
N/A
Visualization observer readout
Local Sidereal Time
14:41:10
Azimuth
Unknown
Elevation
Unknown
Doppler factor
Unknown
Orbital elements
Apogee altitude
19,164.771 km
Perigee altitude
19,094.206 km
Semi-major axis
25,507.626 km
Eccentricity
0.00138
Inclination
65.4622°
RAAN
79.8485°
Arg. of periapsis
249.722°
True anomaly
110.29162°
Mean anomaly
110.1429°
Eccentric anomaly
110.21727°
Mean motion
0.53277 °/min
Orbital period
675.72 mins
BSTAR
0
Loading maneuver chart data...
Computing Atmospheric mass density...
Loading historical data...
Loading historical data...
Loading historical data...
Loading historical data...
Loading historical data...
Loading historical data...
Loading historical data...
Other satellites on launch #88 in the year 2019 (2019-12-11 UTC)

Documentation

Showing up to 5 results
|